Effective Sunday, March 17, 2024, the National Weather Service National Data Buoy Center will discontinue its Dial-A-Buoy Interactive Voice Response system. For more information, see Service Change Notice 24-06 (PDF).

Station 44258 - Halifax Harbour Image indicating link to RSS feed of recent meteorological observations for station 44258

Data from this station are not quality controlled by NDBC


Conditions at 44258 as of
(2:00 am AST)
0600 GMT on 02/21/2024:
     

Click on the graph icon in the table below to see a time series plot of the last five days of that observation.

5-day plot - Wind Direction Wind Direction (WDIR):WNW ( 300 deg true )
5-day plot - Wind Speed Wind Speed (WSPD): 13.6 kts
5-day plot - Wind Gust Wind Gust (GST): 17.5 kts
5-day plot - Wave Height Wave Height (WVHT): 2.0 ft
5-day plot - Dominant Wave Period Dominant Wave Period (DPD): 5 sec
5-day plot - Atmospheric Pressure Atmospheric Pressure (PRES):30.55 in
5-day plot - Pressure Tendency Pressure Tendency (PTDY):+0.06 in ( Rising )
5-day plot - Air Temperature Air Temperature (ATMP): 19.0 °F
5-day plot - Water Temperature Water Temperature (WTMP): 33.1 °F
5-day plot - Ice Accretion Ice Accretion (ICE): 0.28 in per hour
5-day plot - Wind Chill Wind Chill (CHILL): 4.6 °F
5-day plot -  Wind Speed, Wind Gust and Atmospheric Pressure Combined plot of Wind Speed, Gust, and Air Pressure

Data from this station are not quality controlled by NDBC

Previous observations
TIME
(AST)
5-day plot - Wind Direction
WDIR
 
5-day plot - Wind Speed
WSPD
kts
5-day plot - Wind Gust
GST
kts
5-day plot - Wave Height
WVHT
ft
5-day plot - Dominant Wave Period
DPD
sec
5-day plot - Average Wave Period
APD
sec
5-day plot - Mean Wave Direction
MWD
 
5-day plot - Atmospheric Pressure
PRES
in
5-day plot - Pressure Tendency
PTDY
in
5-day plot - Air Temperature
ATMP
°F
5-day plot - Water Temperature
WTMP
°F
5-day plot - Dew Point
DEWP
°F
5-day plot - Salinity
SAL
psu
5-day plot - Visibility
VIS
nmi
5-day plot - Tide (above MLLW)
TIDE
ft
2024-02-21 01:00 amWNW 13.6 17.5 2.0 4--30.53+0.05 19.8 33.1----
2024-02-21 12:00 amWNW 13.6 17.5 2.0 4--30.52+0.06 20.5 33.1----
2024-02-20 11:00 pm W 15.5 19.4 2.3 5--30.50+0.06 21.9 33.1----
2024-02-20 10:00 pm W 15.5 19.4 2.3 4--30.48+0.07 21.9 33.3----
2024-02-20 09:00 pmWSW 15.5 19.4 2.3 5--30.45+0.09 22.1 33.3----
2024-02-20 08:00 pmWSW 15.5 19.4 2.6 5--30.44+0.10 22.6 33.3----
2024-02-20 07:00 pm W 17.5 21.4 2.6 5--30.41+0.09 23.9 33.3----
2024-02-20 06:00 pm W 15.5 19.4 2.6 5--30.37+0.04 25.9 33.4----
2024-02-20 05:00 pmWSW 15.5 17.5 2.6 5--30.34+0.03 26.6 33.4----
2024-02-20 04:00 pm SW 15.5 19.4 3.0 5--30.33+0.02 25.7 33.4----
2024-02-20 03:00 pmWSW 11.7 17.5 2.3 5--30.32-0.00 25.2 33.6----
2024-02-20 02:00 pmWSW 9.7 13.6 2.6 6--30.31-0.02 24.1 33.6----
2024-02-20 01:00 pm W 9.7 13.6 2.3 7--30.31-0.02 22.6 33.6----
2024-02-20 12:00 pm W 11.7 17.5 2.6 7--30.33+0.01 21.0 33.4----
2024-02-20 11:00 amWSW 9.7 13.6 2.6 7--30.33+0.04 19.6 33.4----
2024-02-20 10:00 am W 13.6 15.5 2.6 7--30.33+0.06 18.7 33.4----
2024-02-20 09:00 am W 15.5 17.5 2.6 5--30.32+0.07 18.3 33.3----
2024-02-20 08:00 am W 13.6 19.4 2.6 6--30.29+0.07 18.9 33.3----
2024-02-20 07:00 am W 15.5 19.4 2.6 6--30.27+0.07 19.6 33.3----
2024-02-20 06:00 am W 13.6 17.5 2.6 6--30.24+0.06 20.1 33.3----
2024-02-20 05:00 am W 13.6 17.5 3.0 6--30.22+0.06 21.0 33.3----
2024-02-20 04:00 am W 13.6 17.5 3.0 7--30.20+0.06 21.4 33.3----
2024-02-20 03:00 am W 13.6 17.5 3.3 7--30.18+0.06 22.1 33.3----
2024-02-20 02:00 am W 15.5 21.4 3.6 7--30.16+0.06 23.4 33.3----